Time,TemperatureF,DewpointF,PressureIn,WindDirection,WindDirectionDegrees,WindSpeedMPH,WindSpeedGustMPH,Humidity,HourlyPrecipIn,Conditions,Clouds,dailyrainin,SolarRadiationWatts/m^2,SoftwareType,DateUTC
2013-02-21 00:01:00,44.4,37.0,29.77,East,90,9.2,9.2,75,0.00,RA,,0.00,520.0,WeatherDisplay:10.37,2013-02-21 06:01:00,
2013-02-21 00:06:00,44.4,37.0,29.77,East,90,11.5,11.5,75,0.00,RA,,0.00,520.0,WeatherDisplay:10.37,2013-02-21 06:06:00,
2013-02-21 00:11:00,44.4,37.0,29.75,East,90,11.5,11.5,75,0.00,CLR,,0.00,520.0,WeatherDisplay:10.37,2013-02-21 06:11:00,
2013-02-21 00:16:00,44.8,37.3,29.75,East,90,8.1,8.1,75,0.00,CLR,,0.00,520.0,WeatherDisplay:10.37,2013-02-21 06:16:00,
2013-02-21 00:21:00,44.8,37.3,29.75,ESE,112,7.1,7.1,75,0.00,CLR,,0.00,520.0,WeatherDisplay:10.37,2013-02-21 06:21:00,
2013-02-21 00:26:00,44.6,37.2,29.75,East,90,10.4,10.4,75,0.00,CLR,,0.00,520.0,WeatherDisplay:10.37,2013-02-21 06:26:00,
2013-02-21 00:32:00,44.6,37.2,29.76,ESE,112,9.2,9.2,75,0.00,CLR,,0.00,530.0,WeatherDisplay:10.37,2013-02-21 06:32:00,
2013-02-21 00:37:00,44.6,37.2,29.76,ESE,112,9.2,9.2,75,0.00,CLR,,0.00,490.0,WeatherDisplay:10.37,2013-02-21 06:37:00,
2013-02-21 00:42:00,44.6,37.2,29.76,ENE,68,7.0,7.0,75,0.00,CLR,,0.00,440.0,WeatherDisplay:10.37,2013-02-21 06:42:00,
2013-02-21 00:47:00,44.6,37.2,29.76,East,90,8.1,8.1,75,0.00,CLR,,0.00,430.0,WeatherDisplay:10.37,2013-02-21 06:47:00,
2013-02-21 00:52:00,44.6,37.2,29.75,ESE,112,8.1,8.1,75,0.00,CLR,,0.00,460.0,WeatherDisplay:10.37,2013-02-21 06:52:00,
2013-02-21 00:57:00,44.6,37.2,29.75,East,90,11.5,11.5,75,0.00,CLR,,0.00,470.0,WeatherDisplay:10.37,2013-02-21 06:57:00,
2013-02-21 01:03:00,44.6,37.2,29.75,NNE,22,8.1,8.1,75,0.00,CLR,,0.00,450.0,WeatherDisplay:10.37,2013-02-21 07:03:00,
2013-02-21 01:08:00,44.6,37.2,29.75,NE,45,5.8,7.6,75,0.00,CLR,,0.00,390.0,WeatherDisplay:10.37,2013-02-21 07:08:00,
2013-02-21 01:13:00,44.6,37.2,29.74,East,90,10.4,10.4,75,0.00,CLR,,0.00,400.0,WeatherDisplay:10.37,2013-02-21 07:13:00,
2013-02-21 01:19:00,44.6,37.2,29.74,ENE,68,9.2,9.2,75,0.00,CLR,,0.00,400.0,WeatherDisplay:10.37,2013-02-21 07:19:00,
2013-02-21 01:24:00,44.6,37.2,29.74,ESE,112,6.9,6.9,75,0.00,CLR,,0.00,400.0,WeatherDisplay:10.37,2013-02-21 07:24:00,
2013-02-21 01:29:00,44.6,37.2,29.74,NE,45,8.1,8.1,75,0.00,CLR,,0.00,410.0,WeatherDisplay:10.37,2013-02-21 07:29:00,
2013-02-21 01:34:00,44.6,37.2,29.73,ENE,68,5.8,5.9,75,0.00,CLR,,0.00,430.0,WeatherDisplay:10.37,2013-02-21 07:34:00,
2013-02-21 01:39:00,44.6,37.2,29.73,East,90,8.1,8.1,75,0.00,CLR,,0.00,440.0,WeatherDisplay:10.37,2013-02-21 07:39:00,
2013-02-21 01:45:00,44.6,37.2,29.73,ESE,112,6.9,6.9,75,0.00,CLR,,0.00,420.0,WeatherDisplay:10.37,2013-02-21 07:45:00,
2013-02-21 01:50:00,44.6,37.2,29.73,ESE,112,6.9,6.9,75,0.00,CLR,,0.00,420.0,WeatherDisplay:10.37,2013-02-21 07:50:00,
2013-02-21 01:55:00,44.6,37.2,29.75,East,90,3.5,5.1,75,0.00,CLR,,0.00,350.0,WeatherDisplay:10.37,2013-02-21 07:55:00,
2013-02-21 02:00:00,44.6,37.2,29.75,ENE,68,4.6,4.6,75,0.00,CLR,,0.00,350.0,WeatherDisplay:10.37,2013-02-21 08:00:00,
2013-02-21 02:06:00,44.6,37.2,29.75,East,90,3.5,3.5,75,0.00,CLR,,0.00,0.0,WeatherDisplay:10.37,2013-02-21 08:06:00,
2013-02-21 02:11:00,44.6,37.2,29.75,ENE,68,4.6,4.6,75,0.00,CLR,,0.00,320.0,WeatherDisplay:10.37,2013-02-21 08:11:00,
2013-02-21 02:16:00,44.6,37.2,29.75,East,90,3.5,3.5,75,0.00,CLR,,0.00,310.0,WeatherDisplay:10.37,2013-02-21 08:16:00,
2013-02-21 02:21:00,44.6,37.2,29.75,East,90,5.8,5.8,75,0.00,CLR,,0.00,330.0,WeatherDisplay:10.37,2013-02-21 08:21:00,
2013-02-21 02:27:00,44.6,37.2,29.75,ENE,68,3.6,3.6,75,0.00,CLR,,0.00,350.0,WeatherDisplay:10.37,2013-02-21 08:27:00,
2013-02-21 02:32:00,44.6,37.2,29.73,ESE,112,4.6,4.6,75,0.00,CLR,,0.00,360.0,WeatherDisplay:10.37,2013-02-21 08:32:00,
2013-02-21 02:37:00,44.6,37.2,29.73,East,90,6.9,6.9,75,0.00,CLR,,0.00,350.0,WeatherDisplay:10.37,2013-02-21 08:37:00,
2013-02-21 02:43:00,44.6,37.2,29.73,East,90,4.6,4.6,75,0.00,CLR,,0.00,340.0,WeatherDisplay:10.37,2013-02-21 08:43:00,
2013-02-21 02:48:00,44.6,37.2,29.73,ENE,68,5.8,5.8,75,0.00,CLR,,0.00,340.0,WeatherDisplay:10.37,2013-02-21 08:48:00,
2013-02-21 02:53:00,44.6,37.2,29.71,ESE,112,9.2,9.2,75,0.00,CLR,,0.00,350.0,WeatherDisplay:10.37,2013-02-21 08:53:00,
2013-02-21 02:58:00,44.6,37.2,29.71,East,90,6.9,6.9,75,0.00,CLR,,0.00,370.0,WeatherDisplay:10.37,2013-02-21 08:58:00,
2013-02-21 03:04:00,44.6,37.2,29.71,East,90,9.2,9.2,75,0.00,CLR,,0.00,370.0,WeatherDisplay:10.37,2013-02-21 09:04:00,
2013-02-21 03:09:00,44.6,37.2,29.71,East,90,9.2,9.2,75,0.00,CLR,,0.00,370.0,WeatherDisplay:10.37,2013-02-21 09:09:00,
2013-02-21 03:14:00,44.6,37.2,29.69,East,90,5.8,5.8,75,0.00,CLR,,0.00,370.0,WeatherDisplay:10.37,2013-02-21 09:14:00,
2013-02-21 03:19:00,44.6,37.2,29.69,ESE,112,6.9,6.9,75,0.00,CLR,,0.00,460.0,WeatherDisplay:10.37,2013-02-21 09:19:00,
2013-02-21 03:25:00,44.6,37.2,29.69,East,90,9.2,9.2,75,0.00,CLR,,0.00,490.0,WeatherDisplay:10.37,2013-02-21 09:25:00,
2013-02-21 03:30:00,44.6,37.2,29.69,ESE,112,6.9,6.9,75,0.00,CLR,,0.00,490.0,WeatherDisplay:10.37,2013-02-21 09:30:00,
2013-02-21 03:35:00,44.6,37.2,29.67,ESE,112,10.4,10.4,75,0.00,CLR,,0.00,520.0,WeatherDisplay:10.37,2013-02-21 09:35:00,
2013-02-21 03:41:00,44.6,37.2,29.67,East,90,8.2,8.2,75,0.00,CLR,,0.00,540.0,WeatherDisplay:10.37,2013-02-21 09:41:00,
2013-02-21 03:46:00,44.6,37.2,29.67,ESE,112,6.9,7.5,75,0.00,CLR,,0.00,560.0,WeatherDisplay:10.37,2013-02-21 09:46:00,
2013-02-21 03:51:00,44.6,37.2,29.64,ESE,112,9.2,9.2,75,0.00,CLR,,0.00,560.0,WeatherDisplay:10.37,2013-02-21 09:51:00,
2013-02-21 03:56:00,44.6,37.2,29.64,ESE,112,8.1,8.1,75,0.00,CLR,,0.00,580.0,WeatherDisplay:10.37,2013-02-21 09:56:00,
2013-02-21 04:01:00,44.6,37.2,29.64,ESE,112,9.2,9.2,75,0.00,CLR,,0.00,580.0,WeatherDisplay:10.37,2013-02-21 10:01:00,
2013-02-21 04:07:00,44.6,37.2,29.64,ESE,112,5.8,6.6,75,0.00,CLR,,0.00,580.0,WeatherDisplay:10.37,2013-02-21 10:07:00,
2013-02-21 04:12:00,44.6,37.2,29.65,ESE,112,6.9,6.9,75,0.00,CLR,,0.00,600.0,WeatherDisplay:10.37,2013-02-21 10:12:00,
2013-02-21 04:17:00,44.6,37.2,29.65,East,90,6.9,6.9,75,0.00,CLR,,0.00,580.0,WeatherDisplay:10.37,2013-02-21 10:17:00,
2013-02-21 04:23:00,44.6,37.2,29.65,ENE,68,4.6,4.8,75,0.00,CLR,,0.00,0.0,WeatherDisplay:10.37,2013-02-21 10:23:00,
2013-02-21 04:28:00,44.6,37.2,29.65,ESE,112,4.6,4.6,75,0.00,CLR,,0.00,580.0,WeatherDisplay:10.37,2013-02-21 10:28:00,
2013-02-21 04:33:00,44.6,37.2,29.65,ESE,112,5.8,5.8,75,0.00,CLR,,0.00,610.0,WeatherDisplay:10.37,2013-02-21 10:33:00,
2013-02-21 04:38:00,44.6,37.2,29.65,ESE,112,6.4,6.4,75,0.00,CLR,,0.00,640.0,WeatherDisplay:10.37,2013-02-21 10:38:00,
2013-02-21 04:44:00,44.6,37.2,29.65,ESE,112,5.8,5.8,75,0.00,CLR,,0.00,640.0,WeatherDisplay:10.37,2013-02-21 10:44:00,
2013-02-21 04:49:00,44.6,37.2,29.65,ESE,112,10.4,10.4,75,0.00,CLR,,0.00,650.0,WeatherDisplay:10.37,2013-02-21 10:49:00,
2013-02-21 04:54:00,44.6,37.2,29.62,ESE,112,11.5,11.5,75,0.03,RA,,0.03,680.0,WeatherDisplay:10.37,2013-02-21 10:54:00,
2013-02-21 04:59:00,44.6,37.2,29.62,SE,135,15.0,15.0,75,0.03,RA,,0.03,730.0,WeatherDisplay:10.37,2013-02-21 10:59:00,
2013-02-21 05:05:00,44.6,37.2,29.62,SE,135,13.8,13.8,75,0.03,CLR,,0.03,0.0,WeatherDisplay:10.37,2013-02-21 11:05:00,
2013-02-21 05:10:00,44.6,37.2,29.62,ESE,112,13.8,13.8,75,0.03,CLR,,0.03,0.0,WeatherDisplay:10.37,2013-02-21 11:10:00,
2013-02-21 05:15:00,44.6,37.2,29.60,SE,135,18.4,18.4,75,0.03,CLR,,0.03,760.0,WeatherDisplay:10.37,2013-02-21 11:15:00,
2013-02-21 05:20:00,44.6,37.2,29.60,SE,135,9.2,9.2,75,0.03,CLR,,0.03,770.0,WeatherDisplay:10.37,2013-02-21 11:20:00,
2013-02-21 05:25:00,44.6,37.2,29.60,ESE,112,13.8,13.8,75,0.03,CLR,,0.03,770.0,WeatherDisplay:10.37,2013-02-21 11:25:00,
2013-02-21 05:31:00,44.6,37.2,29.59,SE,135,12.7,12.7,75,0.03,CLR,,0.03,760.0,WeatherDisplay:10.37,2013-02-21 11:31:00,
2013-02-21 05:36:00,44.6,37.2,29.59,SE,135,15.0,15.0,75,0.03,CLR,,0.03,750.0,WeatherDisplay:10.37,2013-02-21 11:36:00,
2013-02-21 05:41:00,44.6,37.2,29.59,ESE,112,13.8,13.8,75,0.03,CLR,,0.03,750.0,WeatherDisplay:10.37,2013-02-21 11:41:00,
2013-02-21 05:47:00,44.6,37.2,29.59,ESE,112,8.1,8.9,75,0.03,CLR,,0.03,0.0,WeatherDisplay:10.37,2013-02-21 11:47:00,
2013-02-21 05:52:00,44.6,37.2,29.60,ESE,112,13.8,13.8,75,0.00,CLR,,0.03,740.0,WeatherDisplay:10.37,2013-02-21 11:52:00,
2013-02-21 05:57:00,44.6,37.2,29.60,SE,135,7.0,7.0,75,0.00,CLR,,0.03,740.0,WeatherDisplay:10.37,2013-02-21 11:57:00,
2013-02-21 06:02:00,44.6,37.2,29.60,ESE,112,8.1,8.1,75,0.00,CLR,,0.03,740.0,WeatherDisplay:10.37,2013-02-21 12:02:00,
2013-02-21 06:07:00,44.6,37.2,29.60,ESE,112,8.1,8.1,75,0.00,CLR,,0.03,740.0,WeatherDisplay:10.37,2013-02-21 12:07:00,
2013-02-21 06:13:00,44.6,37.2,29.59,SSE,158,8.1,8.1,75,0.00,CLR,,0.03,740.0,WeatherDisplay:10.37,2013-02-21 12:13:00,
2013-02-21 06:18:00,44.6,37.2,29.59,SE,135,9.2,9.2,75,0.00,CLR,,0.03,750.0,WeatherDisplay:10.37,2013-02-21 12:18:00,
2013-02-21 06:23:00,44.6,37.2,29.59,SSE,158,5.8,6.8,75,0.00,CLR,,0.03,750.0,WeatherDisplay:10.37,2013-02-21 12:23:00,
2013-02-21 06:28:00,44.6,37.2,29.59,SSE,158,5.8,6.2,75,0.00,CLR,,0.03,750.0,WeatherDisplay:10.37,2013-02-21 12:28:00,
2013-02-21 06:33:00,44.6,37.2,29.60,SE,135,11.5,11.5,75,0.00,CLR,,0.03,760.0,WeatherDisplay:10.37,2013-02-21 12:33:00,
2013-02-21 06:39:00,44.6,37.2,29.60,ESE,112,9.2,9.2,75,0.00,CLR,,0.03,790.0,WeatherDisplay:10.37,2013-02-21 12:39:00,
2013-02-21 06:44:00,44.6,37.2,29.60,ESE,112,11.5,11.5,75,0.00,CLR,,0.03,800.0,WeatherDisplay:10.37,2013-02-21 12:44:00,
2013-02-21 06:49:00,44.6,37.2,29.60,ESE,112,10.4,10.4,75,0.00,CLR,,0.03,800.0,WeatherDisplay:10.37,2013-02-21 12:49:00,
2013-02-21 06:54:00,44.6,37.2,29.58,ESE,112,8.1,8.9,75,0.00,CLR,,0.03,820.0,WeatherDisplay:10.37,2013-02-21 12:54:00,
2013-02-21 07:00:00,44.6,37.2,29.58,ENE,68,10.4,10.4,75,0.00,OVC,,0.03,830.0,WeatherDisplay:10.37,2013-02-21 13:00:00,
2013-02-21 07:05:00,44.6,37.2,29.58,SE,135,18.4,18.4,75,0.00,OVC,,0.03,820.0,WeatherDisplay:10.37,2013-02-21 13:05:00,
2013-02-21 07:10:00,44.6,37.2,29.57,SE,135,9.2,10.1,75,0.00,OVC,,0.03,810.0,WeatherDisplay:10.37,2013-02-21 13:10:00,
2013-02-21 07:15:00,44.6,37.2,29.57,ESE,112,12.7,12.7,75,0.00,OVC,,0.03,800.0,WeatherDisplay:10.37,2013-02-21 13:15:00,
2013-02-21 07:20:00,44.6,37.2,29.57,SE,135,16.9,16.9,75,0.00,OVC,,0.03,800.0,WeatherDisplay:10.37,2013-02-21 13:20:00,
2013-02-21 07:26:00,44.6,37.2,29.57,ESE,112,8.1,10.4,75,0.00,OVC,,0.03,810.0,WeatherDisplay:10.37,2013-02-21 13:26:00,
2013-02-21 07:31:00,44.6,37.2,29.56,ESE,112,15.0,15.0,75,0.00,OVC,,0.03,810.0,WeatherDisplay:10.37,2013-02-21 13:31:00,
2013-02-21 07:36:00,44.6,37.2,29.56,ESE,112,11.5,11.5,75,0.00,OVC,,0.03,810.0,WeatherDisplay:10.37,2013-02-21 13:36:00,
2013-02-21 07:41:00,44.6,37.2,29.56,SE,135,11.5,11.5,75,0.00,OVC,,0.03,790.0,WeatherDisplay:10.37,2013-02-21 13:41:00,
2013-02-21 07:47:00,44.6,37.2,29.56,SE,135,7.1,7.2,75,0.00,OVC,,0.03,790.0,WeatherDisplay:10.37,2013-02-21 13:47:00,
2013-02-21 07:52:00,44.6,37.2,29.64,WNW,292,8.1,8.1,75,0.00,OVC,,0.03,810.0,WeatherDisplay:10.37,2013-02-21 13:52:00,
2013-02-21 07:57:00,50.5,48.0,29.64,WNW,292,18.4,18.4,91,0.00,OVC,,0.03,820.0,WeatherDisplay:10.37,2013-02-21 13:57:00,
2013-02-21 08:03:00,50.2,47.4,29.64,NNW,338,8.1,8.1,90,0.00,OVC,,0.03,810.0,WeatherDisplay:10.37,2013-02-21 14:03:00,
2013-02-21 08:08:00,50.0,47.2,29.64,NW,315,5.8,7.2,90,0.00,OVC,,0.03,740.0,WeatherDisplay:10.37,2013-02-21 14:08:00,
2013-02-21 08:13:00,49.8,47.0,29.67,NW,315,4.6,5.8,90,0.03,RA,,0.06,750.0,WeatherDisplay:10.37,2013-02-21 14:13:00,
2013-02-21 08:18:00,49.8,47.0,29.67,West,270,5.8,5.8,90,0.10,RA,,0.13,760.0,WeatherDisplay:10.37,2013-02-21 14:18:00,
2013-02-21 08:23:00,49.5,46.6,29.67,NW,315,6.9,6.9,90,0.13,RA,,0.16,770.0,WeatherDisplay:10.37,2013-02-21 14:23:00,
2013-02-21 08:29:00,49.3,46.5,29.67,NW,315,7.5,7.5,90,0.16,RA,,0.19,770.0,WeatherDisplay:10.37,2013-02-21 14:29:00,
2013-02-21 08:34:00,49.3,46.5,29.71,NE,45,3.5,4.3,90,0.16,RA,,0.19,800.0,WeatherDisplay:10.37,2013-02-21 14:34:00,
2013-02-21 08:39:00,49.1,46.3,29.71,NE,45,6.9,6.9,90,0.16,OVC,,0.19,860.0,WeatherDisplay:10.37,2013-02-21 14:39:00,
2013-02-21 08:44:00,49.1,46.0,29.71,NW,315,4.6,4.6,89,0.16,OVC,,0.19,830.0,WeatherDisplay:10.37,2013-02-21 14:44:00,
2013-02-21 08:50:00,49.1,46.0,29.71,NW,315,3.5,3.7,89,0.16,OVC,,0.19,830.0,WeatherDisplay:10.37,2013-02-21 14:50:00,
2013-02-21 08:55:00,49.1,46.0,29.73,North,0,5.8,5.8,89,0.16,OVC,,0.19,860.0,WeatherDisplay:10.37,2013-02-21 14:55:00,
2013-02-21 09:00:00,49.1,46.0,29.73,NNE,22,2.3,3.3,89,0.16,OVC,,0.19,940.0,WeatherDisplay:10.37,2013-02-21 15:00:00,
2013-02-21 09:06:00,49.1,46.0,29.73,NNE,22,2.3,2.5,89,0.16,OVC,,0.19,970.0,WeatherDisplay:10.37,2013-02-21 15:06:00,
2013-02-21 09:11:00,49.1,46.0,29.72,NNW,338,1.2,1.4,89,0.16,OVC,,0.19,930.0,WeatherDisplay:10.37,2013-02-21 15:11:00,
2013-02-21 09:16:00,49.1,46.0,29.72,NNE,22,0.0,0.8,89,0.06,OVC,,0.19,910.0,WeatherDisplay:10.37,2013-02-21 15:16:00,
2013-02-21 09:21:00,49.1,46.0,29.72,NW,315,2.3,2.3,89,0.03,OVC,,0.19,980.0,WeatherDisplay:10.37,2013-02-21 15:21:00,
2013-02-21 09:26:00,49.1,46.0,29.72,NE,45,2.3,2.3,89,0.00,OVC,,0.19,1120.0,WeatherDisplay:10.37,2013-02-21 15:26:00,
2013-02-21 09:32:00,49.1,46.0,29.72,North,0,1.2,1.2,89,0.00,OVC,,0.19,1100.0,WeatherDisplay:10.37,2013-02-21 15:32:00,
2013-02-21 09:37:00,49.1,46.0,29.72,NNE,22,2.3,2.3,89,0.00,OVC,,0.19,830.0,WeatherDisplay:10.37,2013-02-21 15:37:00,
2013-02-21 09:42:00,49.1,46.0,29.72,ENE,68,2.3,2.3,89,0.00,OVC,,0.19,730.0,WeatherDisplay:10.37,2013-02-21 15:42:00,
2013-02-21 09:47:00,49.1,46.0,29.72,NNW,338,3.5,3.5,89,0.00,OVC,,0.19,540.0,WeatherDisplay:10.37,2013-02-21 15:47:00,
2013-02-21 09:53:00,49.1,46.0,29.72,NE,45,2.3,2.3,89,0.00,OVC,,0.19,350.0,WeatherDisplay:10.37,2013-02-21 15:53:00,
2013-02-21 09:58:00,49.1,46.0,29.72,West,270,0.0,1.0,89,0.00,OVC,,0.19,370.0,WeatherDisplay:10.37,2013-02-21 15:58:00,
2013-02-21 10:03:00,49.1,46.0,29.72,WNW,292,3.5,3.5,89,0.00,OVC,,0.19,370.0,WeatherDisplay:10.37,2013-02-21 16:03:00,
2013-02-21 10:08:00,49.1,46.0,29.72,NW,315,4.6,4.6,89,0.00,OVC,,0.19,260.0,WeatherDisplay:10.37,2013-02-21 16:08:00,
2013-02-21 10:14:00,49.1,46.0,29.71,NW,315,2.3,2.3,89,0.00,OVC,,0.19,330.0,WeatherDisplay:10.37,2013-02-21 16:14:00,
2013-02-21 10:19:00,49.1,46.0,29.71,WNW,292,3.5,3.5,89,0.00,OVC,,0.19,290.0,WeatherDisplay:10.37,2013-02-21 16:19:00,
2013-02-21 10:24:00,49.1,46.0,29.71,NW,315,1.2,1.3,89,0.00,OVC,,0.19,200.0,WeatherDisplay:10.37,2013-02-21 16:24:00,
2013-02-21 10:30:00,49.1,46.0,29.71,NW,315,0.0,1.3,89,0.00,OVC,,0.19,200.0,WeatherDisplay:10.37,2013-02-21 16:30:00,
2013-02-21 10:35:00,49.1,46.0,29.73,West,270,2.6,2.6,89,0.00,OVC,,0.19,270.0,WeatherDisplay:10.37,2013-02-21 16:35:00,
2013-02-21 10:40:00,49.1,46.0,29.73,NW,315,3.5,3.5,89,0.00,OVC,,0.19,430.0,WeatherDisplay:10.37,2013-02-21 16:40:00,
2013-02-21 10:45:00,49.1,46.0,29.73,NNE,22,3.5,3.5,89,0.00,OVC,,0.19,610.0,WeatherDisplay:10.37,2013-02-21 16:45:00,
2013-02-21 10:50:00,49.1,46.0,29.73,WNW,292,3.5,3.5,89,0.00,OVC,,0.19,610.0,WeatherDisplay:10.37,2013-02-21 16:50:00,
2013-02-21 10:55:00,53.1,49.0,29.74,WSW,248,4.6,4.6,86,0.00,OVC,,0.19,480.0,WeatherDisplay:10.37,2013-02-21 16:55:00,
2013-02-21 11:00:00,53.4,49.3,29.74,NW,315,4.6,4.6,86,0.00,OVC,,0.19,600.0,WeatherDisplay:10.37,2013-02-21 17:00:00,
2013-02-21 11:06:00,53.6,49.5,29.74,WSW,248,4.6,4.6,86,0.00,OVC,,0.19,340.0,WeatherDisplay:10.37,2013-02-21 17:06:00,
2013-02-21 11:11:00,53.8,49.1,29.74,WSW,248,8.2,8.2,84,0.00,OVC,,0.19,240.0,WeatherDisplay:10.37,2013-02-21 17:11:00,
2013-02-21 11:16:00,54.0,49.2,29.74,WSW,248,4.6,4.6,84,0.00,OVC,,0.19,220.0,WeatherDisplay:10.37,2013-02-21 17:16:00,
2013-02-21 11:22:00,54.1,49.1,29.74,West,270,5.8,5.8,83,0.00,OVC,,0.19,400.0,WeatherDisplay:10.37,2013-02-21 17:22:00,
2013-02-21 11:27:00,55.0,50.0,29.74,West,270,3.5,3.5,83,0.00,OVC,,0.19,670.0,WeatherDisplay:10.37,2013-02-21 17:27:00,
2013-02-21 11:32:00,55.8,50.3,29.73,West,270,7.2,7.2,82,0.00,OVC,,0.19,610.0,WeatherDisplay:10.37,2013-02-21 17:32:00,
2013-02-21 11:37:00,55.8,49.3,29.73,WSW,248,8.1,8.1,79,0.00,OVC,,0.19,510.0,WeatherDisplay:10.37,2013-02-21 17:37:00,
2013-02-21 11:43:00,56.3,49.5,29.73,SW,225,9.2,9.2,78,0.00,OVC,,0.19,460.0,WeatherDisplay:10.37,2013-02-21 17:43:00,
2013-02-21 11:48:00,56.5,49.4,29.73,WNW,292,6.9,6.9,77,0.00,OVC,,0.19,640.0,WeatherDisplay:10.37,2013-02-21 17:48:00,
2013-02-21 11:53:00,57.0,48.8,29.73,NW,315,9.2,9.2,74,0.00,OVC,,0.19,370.0,WeatherDisplay:10.37,2013-02-21 17:53:00,
2013-02-21 11:58:00,57.0,48.1,29.73,West,270,6.9,6.9,72,0.00,OVC,,0.19,370.0,WeatherDisplay:10.37,2013-02-21 17:58:00,
2013-02-21 12:04:00,57.2,47.9,29.73,West,270,10.4,10.4,71,0.00,OVC,,0.19,370.0,WeatherDisplay:10.37,2013-02-21 18:04:00,
2013-02-21 12:09:00,57.2,47.9,29.73,West,270,10.4,10.4,71,0.00,OVC,,0.19,370.0,WeatherDisplay:10.37,2013-02-21 18:09:00,
2013-02-21 12:14:00,57.2,45.5,29.73,WSW,248,8.2,8.2,65,0.00,OVC,,0.19,380.0,WeatherDisplay:10.37,2013-02-21 18:14:00,
2013-02-21 12:19:00,57.2,45.5,29.73,WNW,292,11.5,11.5,65,0.00,OVC,,0.19,440.0,WeatherDisplay:10.37,2013-02-21 18:19:00,
2013-02-21 12:24:00,57.9,45.8,29.73,West,270,11.3,11.3,64,0.00,OVC,,0.19,500.0,WeatherDisplay:10.37,2013-02-21 18:24:00,
2013-02-21 12:30:00,58.3,45.7,29.73,West,270,11.7,11.7,63,0.00,OVC,,0.19,500.0,WeatherDisplay:10.37,2013-02-21 18:30:00,
2013-02-21 12:35:00,58.5,45.9,29.73,West,270,10.4,10.4,63,0.00,OVC,,0.19,330.0,WeatherDisplay:10.37,2013-02-21 18:35:00,
2013-02-21 12:40:00,58.1,45.6,29.73,West,270,7.2,7.2,63,0.00,OVC,,0.19,270.0,WeatherDisplay:10.37,2013-02-21 18:40:00,
2013-02-21 12:45:00,58.3,46.2,29.73,NNW,338,6.9,6.9,64,0.00,OVC,,0.19,370.0,WeatherDisplay:10.37,2013-02-21 18:45:00,
2013-02-21 12:50:00,58.8,45.0,29.71,West,270,8.1,8.1,60,0.00,OVC,,0.19,390.0,WeatherDisplay:10.37,2013-02-21 18:50:00,
2013-02-21 12:56:00,59.2,43.9,29.71,SW,225,5.8,6.2,57,0.00,OVC,,0.19,380.0,WeatherDisplay:10.37,2013-02-21 18:56:00,
2013-02-21 13:01:00,59.7,44.9,29.71,NNW,338,5.8,6.2,58,0.00,OVC,,0.19,380.0,WeatherDisplay:10.37,2013-02-21 19:01:00,
2013-02-21 13:06:00,60.1,43.4,29.71,WNW,292,12.7,12.7,54,0.00,OVC,,0.19,380.0,WeatherDisplay:10.37,2013-02-21 19:06:00,
2013-02-21 13:11:00,60.4,43.2,29.69,NNW,338,11.5,11.5,53,0.00,CLR,,0.19,360.0,WeatherDisplay:10.37,2013-02-21 19:11:00,
2013-02-21 13:17:00,61.0,42.7,29.69,WSW,248,10.4,10.4,51,0.00,CLR,,0.19,290.0,WeatherDisplay:10.37,2013-02-21 19:17:00,
2013-02-21 13:22:00,61.3,40.9,29.69,WSW,248,16.1,16.1,47,0.00,CLR,,0.19,370.0,WeatherDisplay:10.37,2013-02-21 19:22:00,
2013-02-21 13:27:00,61.9,41.4,29.69,NW,315,14.0,14.0,47,0.00,CLR,,0.19,380.0,WeatherDisplay:10.37,2013-02-21 19:27:00,
2013-02-21 13:32:00,62.2,41.2,29.69,West,270,19.6,19.6,46,0.00,CLR,,0.19,390.0,WeatherDisplay:10.37,2013-02-21 19:32:00,
2013-02-21 13:38:00,62.4,41.4,29.69,WNW,292,8.1,8.1,46,0.00,CLR,,0.19,390.0,WeatherDisplay:10.37,2013-02-21 19:38:00,
2013-02-21 13:43:00,62.6,40.9,29.69,West,270,9.2,9.2,45,0.00,CLR,,0.19,400.0,WeatherDisplay:10.37,2013-02-21 19:43:00,
2013-02-21 13:48:00,63.0,42.4,29.69,West,270,6.9,6.9,47,0.00,CLR,,0.19,410.0,WeatherDisplay:10.37,2013-02-21 19:48:00,
2013-02-21 13:53:00,63.3,42.7,29.67,WSW,248,8.1,8.1,47,0.00,CLR,,0.19,420.0,WeatherDisplay:10.37,2013-02-21 19:53:00,
2013-02-21 13:58:00,63.7,42.5,29.67,WSW,248,9.2,9.2,46,0.00,CLR,,0.19,460.0,WeatherDisplay:10.37,2013-02-21 19:58:00,
2013-02-21 14:04:00,64.0,42.3,29.67,SSW,202,8.1,8.1,45,0.00,CLR,,0.19,460.0,WeatherDisplay:10.37,2013-02-21 20:04:00,
2013-02-21 14:09:00,64.6,42.7,29.67,NW,315,6.9,6.9,45,0.00,CLR,,0.19,480.0,WeatherDisplay:10.37,2013-02-21 20:09:00,
2013-02-21 14:14:00,64.9,43.1,29.67,WSW,248,9.2,9.2,45,0.00,CLR,,0.19,510.0,WeatherDisplay:10.37,2013-02-21 20:14:00,
2013-02-21 14:19:00,65.7,38.7,29.67,WSW,248,9.2,9.2,37,0.00,CLR,,0.19,560.0,WeatherDisplay:10.37,2013-02-21 20:19:00,
2013-02-21 14:25:00,66.2,39.8,29.67,NW,315,13.8,13.8,38,0.00,CLR,,0.19,570.0,WeatherDisplay:10.37,2013-02-21 20:25:00,
2013-02-21 14:30:00,66.4,39.3,29.67,West,270,6.2,6.2,37,0.00,CLR,,0.19,570.0,WeatherDisplay:10.37,2013-02-21 20:30:00,
2013-02-21 14:35:00,66.7,35.1,29.67,West,270,13.8,13.8,31,0.00,CLR,,0.19,580.0,WeatherDisplay:10.37,2013-02-21 20:35:00,
2013-02-21 14:40:00,67.1,32.9,29.67,WSW,248,15.0,15.0,28,0.00,CLR,,0.19,580.0,WeatherDisplay:10.37,2013-02-21 20:40:00,
2013-02-21 14:46:00,67.5,34.9,29.67,West,270,14.1,14.1,30,0.00,CLR,,0.19,580.0,WeatherDisplay:10.37,2013-02-21 20:46:00,
2013-02-21 14:51:00,67.3,33.0,29.67,West,270,10.4,10.4,28,0.00,CLR,,0.19,610.0,WeatherDisplay:10.37,2013-02-21 20:51:00,
2013-02-21 14:56:00,67.5,32.3,29.67,WSW,248,12.7,12.7,27,0.00,CLR,,0.19,630.0,WeatherDisplay:10.37,2013-02-21 20:56:00,
2013-02-21 15:01:00,67.6,32.4,29.67,WSW,248,18.4,18.4,27,0.00,CLR,,0.19,640.0,WeatherDisplay:10.37,2013-02-21 21:01:00,
2013-02-21 15:07:00,68.0,32.7,29.67,South,180,16.1,16.1,27,0.00,CLR,,0.19,530.0,WeatherDisplay:10.37,2013-02-21 21:07:00,
2013-02-21 15:12:00,68.5,33.2,29.68,South,180,3.5,7.5,27,0.00,CLR,,0.19,400.0,WeatherDisplay:10.37,2013-02-21 21:12:00,
2013-02-21 15:17:00,68.5,32.3,29.68,WSW,248,8.1,8.1,26,0.00,CLR,,0.19,640.0,WeatherDisplay:10.37,2013-02-21 21:17:00,
2013-02-21 15:22:00,68.7,30.4,29.68,WSW,248,11.8,11.8,24,0.00,CLR,,0.19,640.0,WeatherDisplay:10.37,2013-02-21 21:22:00,
2013-02-21 15:28:00,68.7,30.4,29.68,WSW,248,9.2,9.2,24,0.00,CLR,,0.19,660.0,WeatherDisplay:10.37,2013-02-21 21:28:00,
2013-02-21 15:33:00,68.7,29.4,29.68,NW,315,16.1,16.1,23,0.00,CLR,,0.19,660.0,WeatherDisplay:10.37,2013-02-21 21:33:00,
2013-02-21 15:38:00,68.7,28.3,29.68,WSW,248,10.4,10.4,22,0.00,CLR,,0.19,650.0,WeatherDisplay:10.37,2013-02-21 21:38:00,
2013-02-21 15:43:00,68.9,28.5,29.68,SW,225,16.1,16.1,22,0.00,CLR,,0.19,630.0,WeatherDisplay:10.37,2013-02-21 21:43:00,
2013-02-21 15:49:00,69.3,27.6,29.68,West,270,9.2,9.2,21,0.00,CLR,,0.19,640.0,WeatherDisplay:10.37,2013-02-21 21:49:00,
2013-02-21 15:54:00,69.3,28.8,29.68,WSW,248,10.4,10.4,22,0.00,CLR,,0.19,650.0,WeatherDisplay:10.37,2013-02-21 21:54:00,
2013-02-21 15:59:00,69.1,28.6,29.68,WSW,248,9.2,9.2,22,0.00,CLR,,0.19,630.0,WeatherDisplay:10.37,2013-02-21 21:59:00,
2013-02-21 16:04:00,69.1,28.6,29.68,WSW,248,11.4,11.4,22,0.00,CLR,,0.19,620.0,WeatherDisplay:10.37,2013-02-21 22:04:00,
2013-02-21 16:10:00,69.3,28.8,29.68,WNW,292,13.8,13.8,22,0.00,CLR,,0.19,620.0,WeatherDisplay:10.37,2013-02-21 22:10:00,
2013-02-21 16:15:00,69.3,28.8,29.69,WSW,248,15.0,15.0,22,0.00,CLR,,0.19,570.0,WeatherDisplay:10.37,2013-02-21 22:15:00,
2013-02-21 16:20:00,70.0,28.2,29.69,WSW,248,6.9,7.5,21,0.00,CLR,,0.19,550.0,WeatherDisplay:10.37,2013-02-21 22:20:00,
2013-02-21 16:25:00,70.0,28.2,29.69,WSW,248,11.5,11.5,21,0.00,FEW,,0.19,510.0,WeatherDisplay:10.37,2013-02-21 22:25:00,
2013-02-21 16:31:00,70.7,27.6,29.69,NW,315,11.5,11.5,20,0.00,SCT,,0.19,460.0,WeatherDisplay:10.37,2013-02-21 22:31:00,
2013-02-21 16:36:00,70.7,28.8,29.69,WNW,292,10.4,10.4,21,0.00,SCT,,0.19,440.0,WeatherDisplay:10.37,2013-02-21 22:36:00,
2013-02-21 16:41:00,70.9,27.8,29.69,WSW,248,9.2,9.2,20,0.00,SCT,,0.19,410.0,WeatherDisplay:10.37,2013-02-21 22:41:00,
2013-02-21 16:46:00,71.1,26.7,29.69,WNW,292,15.0,15.0,19,0.00,SCT,,0.19,360.0,WeatherDisplay:10.37,2013-02-21 22:46:00,
2013-02-21 16:52:00,70.9,26.5,29.70,West,270,6.9,8.4,19,0.00,BKN,,0.19,310.0,WeatherDisplay:10.37,2013-02-21 22:52:00,
2013-02-21 16:57:00,70.7,28.8,29.70,WNW,292,17.3,17.3,21,0.00,BKN,,0.19,280.0,WeatherDisplay:10.37,2013-02-21 22:57:00,
2013-02-21 17:02:00,70.5,28.7,29.70,WNW,292,16.0,16.0,21,0.00,OVC,,0.19,240.0,WeatherDisplay:10.37,2013-02-21 23:02:00,
2013-02-21 17:08:00,70.3,28.5,29.70,NW,315,9.2,9.9,21,0.00,OVC,,0.19,190.0,WeatherDisplay:10.37,2013-02-21 23:08:00,
2013-02-21 17:13:00,70.0,29.4,29.72,WNW,292,9.2,9.2,22,0.00,OVC,,0.19,130.0,WeatherDisplay:10.37,2013-02-21 23:13:00,
2013-02-21 17:18:00,70.0,29.4,29.72,WNW,292,13.8,13.8,22,0.00,OVC,,0.19,100.0,WeatherDisplay:10.37,2013-02-21 23:18:00,
2013-02-21 17:23:00,69.4,30.0,29.72,West,270,16.1,16.1,23,0.00,OVC,,0.19,90.0,WeatherDisplay:10.37,2013-02-21 23:23:00,
2013-02-21 17:29:00,69.3,29.8,29.72,West,270,9.2,9.4,23,0.00,OVC,,0.19,80.0,WeatherDisplay:10.37,2013-02-21 23:29:00,
2013-02-21 17:34:00,69.1,30.7,29.72,West,270,10.4,10.4,24,0.00,OVC,,0.19,70.0,WeatherDisplay:10.37,2013-02-21 23:34:00,
2013-02-21 17:39:00,68.7,31.4,29.72,West,270,12.1,12.1,25,0.00,OVC,,0.19,50.0,WeatherDisplay:10.37,2013-02-21 23:39:00,
2013-02-21 17:44:00,68.5,32.3,29.72,WNW,292,9.8,9.8,26,0.00,OVC,,0.19,40.0,WeatherDisplay:10.37,2013-02-21 23:44:00,
2013-02-21 17:49:00,68.2,32.0,29.72,WSW,248,13.8,13.8,26,0.00,OVC,,0.19,40.0,WeatherDisplay:10.37,2013-02-21 23:49:00,
2013-02-21 17:55:00,68.2,32.0,29.74,West,270,9.2,9.2,26,0.00,OVC,,0.19,20.0,WeatherDisplay:10.37,2013-02-21 23:55:00,
2013-02-21 18:00:00,66.9,32.7,29.74,WSW,248,8.1,8.1,28,0.00,OVC,,0.19,10.0,WeatherDisplay:10.37,2013-02-22 00:00:00,
2013-02-21 18:05:00,67.1,32.9,29.74,WSW,248,4.6,6.3,28,0.00,OVC,,0.19,0.0,WeatherDisplay:10.37,2013-02-22 00:05:00,
2013-02-21 18:10:00,67.1,32.9,29.75,West,270,5.8,6.0,28,0.00,OVC,,0.19,0.0,WeatherDisplay:10.37,2013-02-22 00:10:00,
2013-02-21 18:16:00,66.2,33.8,29.75,WNW,292,4.6,5.9,30,0.00,OVC,,0.19,0.0,WeatherDisplay:10.37,2013-02-22 00:16:00,
2013-02-21 18:21:00,65.8,33.5,29.75,West,270,5.8,5.8,30,0.00,OVC,,0.19,0.0,WeatherDisplay:10.37,2013-02-22 00:21:00,
2013-02-21 18:26:00,65.5,34.0,29.75,West,270,3.5,4.0,31,0.00,OVC,,0.19,0.0,WeatherDisplay:10.37,2013-02-22 00:26:00,
2013-02-21 18:32:00,65.3,33.9,29.77,West,270,5.8,5.8,31,0.00,OVC,,0.19,0.0,WeatherDisplay:10.37,2013-02-22 00:32:00,
2013-02-21 18:37:00,64.9,34.3,29.77,West,270,4.6,4.6,32,0.00,OVC,,0.19,0.0,WeatherDisplay:10.37,2013-02-22 00:37:00,
2013-02-21 18:42:00,64.6,34.8,29.77,WSW,248,6.9,6.9,33,0.00,OVC,,0.19,0.0,WeatherDisplay:10.37,2013-02-22 00:42:00,
2013-02-21 18:47:00,64.4,34.6,29.77,WSW,248,6.9,6.9,33,0.00,OVC,,0.19,0.0,WeatherDisplay:10.37,2013-02-22 00:47:00,
2013-02-21 18:52:00,64.0,34.3,29.78,West,270,3.5,3.5,33,0.00,CLR,,0.19,0.0,WeatherDisplay:10.37,2013-02-22 00:52:00,
2013-02-21 18:58:00,63.9,34.9,29.78,West,270,3.5,3.5,34,0.00,CLR,,0.19,0.0,WeatherDisplay:10.37,2013-02-22 00:58:00,
2013-02-21 19:03:00,63.5,34.6,29.78,West,270,3.5,3.5,34,0.00,CLR,,0.19,0.0,WeatherDisplay:10.37,2013-02-22 01:03:00,
2013-02-21 19:08:00,63.1,35.0,29.78,WSW,248,3.9,3.9,35,0.00,CLR,,0.19,0.0,WeatherDisplay:10.37,2013-02-22 01:08:00,
2013-02-21 19:13:00,63.1,35.0,29.79,WSW,248,2.3,2.3,35,0.00,CLR,,0.19,0.0,WeatherDisplay:10.37,2013-02-22 01:13:00,
2013-02-21 19:19:00,62.6,34.5,29.79,WSW,248,4.6,4.6,35,0.00,CLR,,0.19,0.0,WeatherDisplay:10.37,2013-02-22 01:19:00,
2013-02-21 19:24:00,62.2,34.9,29.79,WNW,292,3.5,3.5,36,0.00,CLR,,0.19,0.0,WeatherDisplay:10.37,2013-02-22 01:24:00,
2013-02-21 19:29:00,62.1,35.5,29.79,West,270,2.5,2.6,37,0.00,CLR,,0.19,0.0,WeatherDisplay:10.37,2013-02-22 01:29:00,
2013-02-21 19:34:00,61.9,35.3,29.79,WNW,292,3.5,3.5,37,0.00,CLR,,0.19,0.0,WeatherDisplay:10.37,2013-02-22 01:34:00,
2013-02-21 19:40:00,61.5,35.0,29.79,West,270,4.6,4.6,37,0.00,CLR,,0.19,0.0,WeatherDisplay:10.37,2013-02-22 01:40:00,
2013-02-21 19:45:00,61.3,35.5,29.79,West,270,4.6,4.6,38,0.00,CLR,,0.19,0.0,WeatherDisplay:10.37,2013-02-22 01:45:00,
2013-02-21 19:50:00,61.2,35.3,29.79,WSW,248,5.8,5.8,38,0.00,CLR,,0.19,0.0,WeatherDisplay:10.37,2013-02-22 01:50:00,
2013-02-21 19:55:00,61.0,35.2,29.81,WNW,292,3.5,3.5,38,0.00,CLR,,0.19,0.0,WeatherDisplay:10.37,2013-02-22 01:55:00,
2013-02-21 20:01:00,60.8,35.0,29.81,West,270,4.7,4.7,38,0.00,CLR,,0.19,0.0,WeatherDisplay:10.37,2013-02-22 02:01:00,
2013-02-21 20:06:00,60.8,35.7,29.81,West,270,3.5,3.7,39,0.00,CLR,,0.19,0.0,WeatherDisplay:10.37,2013-02-22 02:06:00,
2013-02-21 20:11:00,60.6,35.5,29.83,WNW,292,4.6,4.6,39,0.00,CLR,,0.19,0.0,WeatherDisplay:10.37,2013-02-22 02:11:00,
2013-02-21 20:16:00,60.4,35.3,29.83,WSW,248,2.4,2.8,39,0.00,CLR,,0.19,0.0,WeatherDisplay:10.37,2013-02-22 02:16:00,
2013-02-21 20:22:00,60.4,35.3,29.83,West,270,2.9,2.9,39,0.00,CLR,,0.19,0.0,WeatherDisplay:10.37,2013-02-22 02:22:00,
2013-02-21 20:27:00,60.3,35.2,29.83,WSW,248,3.5,3.5,39,0.00,CLR,,0.19,0.0,WeatherDisplay:10.37,2013-02-22 02:27:00,
2013-02-21 20:32:00,59.9,35.5,29.83,ENE,68,4.6,4.6,40,0.00,CLR,,0.19,0.0,WeatherDisplay:10.37,2013-02-22 02:32:00,
2013-02-21 20:37:00,59.9,35.5,29.83,West,270,4.6,4.6,40,0.00,CLR,,0.19,0.0,WeatherDisplay:10.37,2013-02-22 02:37:00,
2013-02-21 20:42:00,59.4,35.0,29.83,West,270,3.5,3.5,40,0.00,CLR,,0.19,0.0,WeatherDisplay:10.37,2013-02-22 02:42:00,
2013-02-21 20:48:00,59.4,35.6,29.83,West,270,4.6,4.6,41,0.00,CLR,,0.19,0.0,WeatherDisplay:10.37,2013-02-22 02:48:00,
2013-02-21 20:53:00,59.2,35.5,29.83,NW,315,6.2,6.2,41,0.00,CLR,,0.19,0.0,WeatherDisplay:10.37,2013-02-22 02:53:00,
2013-02-21 20:58:00,59.4,36.8,29.83,NW,315,9.2,9.2,43,0.00,CLR,,0.19,0.0,WeatherDisplay:10.37,2013-02-22 02:58:00,
2013-02-21 21:04:00,59.2,38.4,29.83,NW,315,8.1,8.1,46,0.00,CLR,,0.19,0.0,WeatherDisplay:10.37,2013-02-22 03:04:00,
2013-02-21 21:09:00,58.5,39.9,29.83,NW,315,13.8,13.8,50,0.00,CLR,,0.19,40.0,WeatherDisplay:10.37,2013-02-22 03:09:00,
2013-02-21 21:14:00,57.9,40.4,29.87,NW,315,8.1,9.0,52,0.00,CLR,,0.19,30.0,WeatherDisplay:10.37,2013-02-22 03:14:00,
2013-02-21 21:19:00,57.7,41.2,29.87,NW,315,11.5,11.5,54,0.00,CLR,,0.19,20.0,WeatherDisplay:10.37,2013-02-22 03:19:00,
2013-02-21 21:24:00,57.0,41.5,29.87,NNW,338,15.0,15.0,56,0.00,CLR,,0.19,20.0,WeatherDisplay:10.37,2013-02-22 03:24:00,
2013-02-21 21:30:00,56.3,41.3,29.87,NNW,338,4.6,9.1,57,0.00,CLR,,0.19,20.0,WeatherDisplay:10.37,2013-02-22 03:30:00,
2013-02-21 21:35:00,55.8,41.2,29.89,NNW,338,5.9,6.0,58,0.00,CLR,,0.19,10.0,WeatherDisplay:10.37,2013-02-22 03:35:00,
2013-02-21 21:40:00,55.4,41.3,29.89,NNW,338,6.9,6.9,59,0.00,CLR,,0.19,10.0,WeatherDisplay:10.37,2013-02-22 03:40:00,
2013-02-21 21:45:00,54.7,41.1,29.89,West,270,9.2,9.2,60,0.00,CLR,,0.19,0.0,WeatherDisplay:10.37,2013-02-22 03:45:00,
2013-02-21 21:51:00,54.1,40.6,29.91,NW,315,9.2,9.2,60,0.00,CLR,,0.19,0.0,WeatherDisplay:10.37,2013-02-22 03:51:00,
2013-02-21 21:56:00,53.6,40.0,29.91,NW,315,9.2,9.2,60,0.00,CLR,,0.19,0.0,WeatherDisplay:10.37,2013-02-22 03:56:00,
2013-02-21 22:01:00,53.2,40.1,29.91,NNW,338,9.2,9.2,61,0.00,CLR,,0.19,0.0,WeatherDisplay:10.37,2013-02-22 04:01:00,
2013-02-21 22:06:00,52.9,39.8,29.91,NW,315,9.2,9.2,61,0.00,CLR,,0.19,0.0,WeatherDisplay:10.37,2013-02-22 04:06:00,
2013-02-21 22:12:00,52.9,40.2,29.92,NNW,338,8.1,8.1,62,0.00,CLR,,0.19,10.0,WeatherDisplay:10.37,2013-02-22 04:12:00,
2013-02-21 22:17:00,52.5,39.9,29.92,NW,315,6.9,6.9,62,0.00,CLR,,0.19,0.0,WeatherDisplay:10.37,2013-02-22 04:17:00,
2013-02-21 22:22:00,52.2,39.5,29.92,ESE,112,9.2,9.2,62,0.00,CLR,,0.19,0.0,WeatherDisplay:10.37,2013-02-22 04:22:00,
2013-02-21 22:27:00,52.2,39.5,29.92,North,0,6.9,6.9,62,0.00,CLR,,0.19,0.0,WeatherDisplay:10.37,2013-02-22 04:27:00,
2013-02-21 22:33:00,52.0,39.8,29.94,NW,315,4.6,4.6,63,0.00,CLR,,0.19,10.0,WeatherDisplay:10.37,2013-02-22 04:33:00,
2013-02-21 22:38:00,51.6,39.0,29.94,NNW,338,7.4,7.4,62,0.00,CLR,,0.19,0.0,WeatherDisplay:10.37,2013-02-22 04:38:00,
2013-02-21 22:43:00,51.4,39.3,29.94,NNW,338,10.4,10.4,63,0.00,CLR,,0.19,0.0,WeatherDisplay:10.37,2013-02-22 04:43:00,
2013-02-21 22:48:00,51.3,39.5,29.94,NW,315,5.8,5.8,64,0.00,CLR,,0.19,0.0,WeatherDisplay:10.37,2013-02-22 04:48:00,
2013-02-21 22:54:00,50.9,39.1,29.94,NW,315,2.6,4.3,64,0.00,CLR,,0.19,10.0,WeatherDisplay:10.37,2013-02-22 04:54:00,
2013-02-21 22:59:00,50.9,39.1,29.94,NNW,338,4.6,4.6,64,0.00,CLR,,0.19,10.0,WeatherDisplay:10.37,2013-02-22 04:59:00,
2013-02-21 23:00:00,50.9,39.1,29.94,NNW,338,2.8,2.9,64,0.00,CLR,,0.19,10.0,WeatherDisplay:10.37,2013-02-22 05:00:00,
2013-02-21 23:01:00,50.9,39.1,29.94,NW,315,2.3,2.5,64,0.00,CLR,,0.19,10.0,WeatherDisplay:10.37,2013-02-22 05:01:00,
2013-02-21 23:07:00,50.7,39.0,29.94,NW,315,6.9,6.9,64,0.00,CLR,,0.19,0.0,WeatherDisplay:10.37,2013-02-22 05:07:00,
2013-02-21 23:12:00,50.5,39.2,29.94,NNW,338,4.6,4.6,65,0.00,CLR,,0.19,0.0,WeatherDisplay:10.37,2013-02-22 05:12:00,
2013-02-21 23:17:00,50.2,39.3,29.94,North,0,5.8,5.8,66,0.00,CLR,,0.19,0.0,WeatherDisplay:10.37,2013-02-22 05:17:00,
2013-02-21 23:22:00,50.0,39.1,29.94,NW,315,2.3,3.6,66,0.00,CLR,,0.19,10.0,WeatherDisplay:10.37,2013-02-22 05:22:00,
2013-02-21 23:27:00,49.8,38.9,29.94,NW,315,3.5,3.5,66,0.00,CLR,,0.19,10.0,WeatherDisplay:10.37,2013-02-22 05:27:00,
2013-02-21 23:32:00,49.6,38.7,29.94,NNW,338,2.3,2.9,66,0.00,CLR,,0.19,10.0,WeatherDisplay:10.37,2013-02-22 05:32:00,
2013-02-21 23:38:00,49.5,38.6,29.94,NNW,338,9.2,9.2,66,0.00,CLR,,0.19,0.0,WeatherDisplay:10.37,2013-02-22 05:38:00,
2013-02-21 23:43:00,49.3,38.8,29.94,NNW,338,4.6,4.6,67,0.00,CLR,,0.19,0.0,WeatherDisplay:10.37,2013-02-22 05:43:00,
2013-02-21 23:48:00,48.9,38.4,29.94,NNE,22,5.8,5.8,67,0.00,CLR,,0.19,10.0,WeatherDisplay:10.37,2013-02-22 05:48:00,
2013-02-21 23:53:00,49.1,38.6,29.94,NNW,338,4.6,4.6,67,0.00,CLR,,0.19,20.0,WeatherDisplay:10.37,2013-02-22 05:53:00,
2013-02-21 23:59:00,48.6,38.5,29.94,North,0,5.8,5.8,68,0.00,CLR,,0.19,20.0,WeatherDisplay:10.37,2013-02-22 05:59:00,